Simultaneous Nadir Overpasses (SNOs) Predictions

Prediction of SNOs between METOP-C and LANDSAT-8 Satellite Orbit:

Table of predicted SNOs for the next 14.0 days since TLE Epoch: 9/7/2019
Index Date (METOP-C) Time (METOP-C) Lat,Lon (METOP-C) SZA (METOP-C ) Date (LANDSAT-8) Time (LANDSAT-8) Lat,Lon (LANDSAT-8) SZA (LANDSAT-8 ) Distance(km) Time Diff (sec)
1 09/08/2019 00:23:59 81.14,-145.97 77.40 09/08/2019 00:25:11 81.14,-146.02 77.42 0.95 72
2 09/08/2019 01:14:38 -81.16, 22.12 102.50 09/08/2019 01:14:37 -81.16, 21.96 102.52 2.68 1
3 09/08/2019 02:04:28 81.27,-150.72 79.96 09/08/2019 02:03:15 81.81,-150.94 80.14 60.15 73
4 09/10/2019 19:58:20 81.14, -79.51 78.49 09/10/2019 19:59:26 81.13, -79.68 78.49 2.91 66
5 09/10/2019 20:49:00 -81.15, 88.26 101.45 09/10/2019 20:48:52 -81.15, 88.33 101.45 1.20 8
6 09/13/2019 15:32:43 81.13, -13.43 79.54 09/13/2019 15:33:42 81.13, -13.33 79.57 1.76 59
7 09/13/2019 16:23:22 -81.16, 154.78 100.34 09/13/2019 16:23:08 -81.15, 154.70 100.36 1.57 14
8 09/16/2019 11:07:04 81.14, 53.40 80.69 09/16/2019 11:07:57 81.14, 53.38 80.71 0.42 53
9 09/16/2019 11:57:45 -81.15,-139.08 99.27 09/16/2019 11:57:24 -81.15,-138.94 99.27 2.43 21
10 09/19/2019 06:41:26 81.14, 119.87 81.81 09/19/2019 06:42:13 81.14, 119.74 81.81 2.31 47




NCC Satellite Simultaneous Nadir Overpasses (SNOs) Prediction Service
